COSMOS 2310

导读 | 星芒AI

COSMOS 2310 是俄罗斯于1997年12月16日发射的一颗军用通信卫星,搭载于“联盟”号火箭,任务涉及军事通信与情报传输。该卫星属于俄罗斯的军事卫星网络,具体功能和轨道参数未公开。由于其军事用途,COSMOS 2310 的信息较为保密,外界对其了解有限。该卫星在轨运行期间对俄罗斯的国防通信系统提供了重要支持。

基本信息
目录编号:
23526
目录名称:
COSMOS 2310
国际标识:
1995-012A
轨道中心:
EARTH
卫星名称:
COSMOS 2310
卫星全名:
--
卫星状态:
在轨 (已飞行11180 天)
发射日期:
1995-03-21 UTC
国别 :
俄罗斯(独联体) (CIS)
星等 :
--
轨道信息
数据来源 国际轨道数据 AOE轨道数据
星历时间 2025-10-28T20:08:26+0800
18小时前
查看轨道信息
2025-10-28T20:00:00+0800
18小时前
查看轨道信息
半长轴 7369.446km 7369.446km
偏心率 0.0021584 0.0021524
轨道倾角 82.945° 82.945°
近地点辐角 214.331° 213.987°
升交点赤经 319.610° 319.614°
平近点角 298.191° 269.628°
近地点 975.404km 975.449km
远地点 1007.218km 1007.173km
周期 104.933分钟 104.933分钟
每日圈数 13.723047 13.723048
详细信息
使用方式:
暂无
2D轨道图
3D轨道图
轨道高度分析图
轨道倾角分析图
轨道综合分析图
查看轨道综合分析图